Regional Weather Roundup
Issued by NWS

Home | Current Version | Previous Version | Text Only | Print | Product List | Glossary Off
Versions: 1 2 3 4 5 6 7 8 9 10 11 12 13 14 15 16 17 18 19 20 21 22 23 24 25 26 27 28 29 30 31 32 33 34 35 36 37 38 39 40 41 42 43 44 45 46 47 48 49 50

000
ASUS43 KOAX 160410
RWRNE

WEATHER ROUNDUP FOR NEBRASKA
NATIONAL WEATHER SERVICE OMAHA NE
1000 PM CST SUN JAN 15 2017

NOTES: SATELLITE DATA IS BEING USED TO AUGMENT CLOUD COVER ABOVE
       12000 FEET.
       "FAIR" INDICATES FEW OR NO CLOUDS BELOW 12,000 FEET WITH NO
       SIGNIFICANT WEATHER AND/OR OBSTRUCTIONS TO VISIBILITY.

  * THESE STATIONS DO NOT REPORT WEATHER SUCH AS RAIN...SNOW OR FOG.

NEZ001>004-019>022-054>056-160500-
NEBRASKA PANHANDLE

CITY           SKY/WX    TMP DP  RH WIND       PRES   REMARKS
SCOTTSBLUFF    CLOUDY    30  25  81 NW5       30.00S WCI  25
ALLIANCE       CLOUDY    31  26  82 CALM      29.99R
CHADRON        CLOUDY    24  20  84 SW5       30.03S WCI  18
KIMBALL        LGT SNOW  32  28  84 CALM      29.97S
SIDNEY         MIX PCPN  30  28  92 NW3       29.98R FOG
$$

NEZ057>060-069>072-079>082-160500-
SOUTHWEST NEBRASKA

CITY           SKY/WX    TMP DP  RH WIND       PRES   REMARKS
NORTH PLATTE   MIX PCPN  32  30  92 SE5       30.02F FOG     WCI  27
IMPERIAL       CLOUDY    31  29  92 S6        30.00F WCI  25
LEXINGTON      MIX PCPN  31  30  94 SE5       30.05S WCI  27
MCCOOK         CLOUDY    30  30 100 SE6       30.04S WCI  24
OGALLALA       MIX PCPN  32  31  96 CALM      30.00S
$$

NEZ005>010-023>029-035>040-094-160500-
NORTH CENTRAL NEBRASKA

CITY           SKY/WX    TMP DP  RH WIND       PRES   REMARKS
VALENTINE      CLOUDY    30  23  75 CALM      30.04S
AINSWORTH      CLOUDY    31  26  79 CALM      30.04S
BROKEN BOW     CLOUDY    31  30  96 SE5       30.03F FOG     WCI  26
O`NEILL        CLOUDY    32  26  77 SE5       30.08S WCI  28
ORD            FRZ RAIN  31  28  89 E6        30.06F FOG     WCI  25
THEDFORD       DRIZZLE   33  30  89 CALM      30.03S
$$

NEZ041-046>049-061>064-073>077-083>087-160500-
SOUTH CENTRAL NEBRASKA

CITY           SKY/WX    TMP DP  RH WIND       PRES   REMARKS
GRAND ISLAND   CLOUDY    30  30 100 SE6       30.09S FOG     WCI  24
AURORA         CLOUDY    30  29  97 SE5       30.09S FOG     WCI  25
HASTINGS       FRZ RAIN  30  29  96 SE6       30.08F WCI  24
HEBRON         CLOUDY    31  30  96 E5        30.10F WCI  26
HOLDREGE       MIX PCPN  31  29  94 E5        30.05F WCI  26
KEARNEY *      CLOUDY    30  27  86 CALM      30.07S
YORK           MOCLDY    30  30 100 CALM      30.10F FOG
$$

NEZ011>018-030>034-042>045-160500-
NORTHEAST NEBRASKA

CITY           SKY/WX    TMP DP  RH WIND       PRES   REMARKS
NORFOLK        CLOUDY    29  27  92 E3        30.11S FOG
ALBION         MIX PCPN  31  29  93 SE5       30.10S WCI  26
BLAIR          MIX PCPN  32  31  96 SE3       30.14R
FREMONT        MIX PCPN  32  32 100 CALM      30.15S
TEKAMAH        FRZ RAIN  32  30  92 E3        30.16S FOG
WAYNE          MIX PCPN  30  29  94 SE5       30.14S WCI  25
$$

NEZ050>053-065>068-078-088>093-160500-
SOUTHEAST NEBRASKA

CITY           SKY/WX    TMP DP  RH WIND       PRES   REMARKS
LINCOLN        CLOUDY    32  30  92 E5        30.14F WCI  27
OMAHA EPPLEY   FRZ RAIN  32  28  85 SE6       30.16S FOG     WCI  26
BEATRICE       MIX PCPN  32  32  99 E6        30.12S WCI  26
FALLS CITY     MIX PCPN  32  31  96 E8        30.13F WCI  25
NEBRASKA CITY  MIX PCPN  32  32 100 E6        30.14F WCI  26
PLATTSMOUTH    MIX PCPN  32  29  90 SE5       30.15S WCI  27
$$

NEZ044-045-051>053-067-160500-
OMAHA AREA

CITY           SKY/WX    TMP DP  RH WIND       PRES   REMARKS
OMAHA EPPLEY   FRZ RAIN  32  28  85 SE6       30.16S FOG     WCI  26
BLAIR          MIX PCPN  32  31  96 SE3       30.14R
FREMONT        MIX PCPN  32  32 100 CALM      30.15S
MILLARD        DRIZZLE   33  32  94 SE3       30.16S
OFFUTT AFB     FRZ DRZL  32  32 100 CALM      30.15S
PLATTSMOUTH    MIX PCPN  32  29  90 SE5       30.15S WCI  27
WAHOO          MIX PCPN  32  30  95 SE6       30.14F WCI  26
$$




USA.gov is the U.S. government's official web portal to all federal, state and local government web resources and services.